Waarnemingen

Advertentie
Mijn weer
Oostende Airport, België (6407): temperatuur & dauwpunt: 11.10.2018 06:00:00 - 17.10.2018 06:00:00 (CEST)Oostende Airport, België (6407): windsnelheid & windstoten: 11.10.2018 06:00:00 - 17.10.2018 06:00:00 (CEST)Oostende Airport, België (6407): windrichting: 11.10.2018 06:00:00 - 17.10.2018 06:00:00 (CEST)Oostende Airport, België (6407): luchtdruk: 11.10.2018 06:00:00 - 17.10.2018 06:00:00 (CEST)Oostende Airport, België (6407): zicht: 11.10.2018 06:00:00 - 17.10.2018 06:00:00 (CEST)
Datum & Tijd tt [°C] td [°C] ff [km/u] ff [kn] fx [km/u] fx [kn] dd ppp [hPa] vv [km]
17.10.2018 06:00:00 - - - - - - - - -
17.10.2018 05:00:00 9,8 8,1 8 4 - - ZZW 1018,5 2,8
17.10.2018 04:00:00 10,3 9,0 9 5 11 6 Z 1018,5 3,5
17.10.2018 03:00:00 11,0 9,3 9 5 11 6 Z 1018,7 4,0
17.10.2018 02:00:00 11,5 9,5 8 4 - - ZZW 1018,6 4,5
17.10.2018 01:00:00 12,7 10,8 5 3 14 8 ZZW 1018,7 8
17.10.2018 00:00:00 14,1 12,1 11 6 25 14 W 1018,7 10
16.10.2018 23:00:00 14,8 12,9 18 10 - - W 1018,8 10
16.10.2018 22:00:00 14,0 11,8 15 8 18 10 W 1018,6 10
16.10.2018 21:00:00 13,6 10,7 2 1 11 6 W 1018,1 10
16.10.2018 20:00:00 15,3 11,6 8 4 - - NW 1018,1 10
16.10.2018 19:00:00 19,8 10,7 2 1 11 6 - 1017,7 10
16.10.2018 18:00:00 22,0 11,5 9 5 25 14 Z 1017,6 10
16.10.2018 17:00:00 23,1 9,4 16 9 - - Z 1017,7 10
16.10.2018 16:00:00 23,5 9,4 18 10 25 14 Z 1017,8 10
16.10.2018 15:00:00 23,2 10,0 15 8 22 12 Z 1018,0 10
16.10.2018 14:00:00 22,6 10,3 15 8 - - Z 1018,1 10
16.10.2018 13:00:00 21,8 10,4 18 10 25 14 ZZW 1018,2 10
16.10.2018 12:00:00 19,7 10,9 15 8 18 10 Z 1018,0 10
16.10.2018 11:00:00 17,3 11,2 11 6 - - Z 1017,8 10
16.10.2018 10:00:00 13,3 10,0 11 6 14 8 Z 1017,8 10
16.10.2018 09:00:00 10,2 7,8 8 4 11 6 Z 1017,4 10
16.10.2018 08:00:00 10,0 8,1 5 3 - - ZO 1016,9 9
16.10.2018 07:00:00 9,7 7,6 9 5 11 6 ZO 1016,5 9
16.10.2018 06:00:00 10,3 8,8 4 2 11 6 ZO 1016,4 7
16.10.2018 05:00:00 10,6 9,3 8 4 - - OZO 1016,0 3,5
16.10.2018 04:00:00 11,3 10,0 11 6 14 8 OZO 1016,1 3,5
16.10.2018 03:00:00 10,4 9,2 8 4 11 6 O 1016,2 5
16.10.2018 02:00:00 12,4 10,7 9 5 - - O 1015,9 6
16.10.2018 01:00:00 13,5 11,5 8 4 7 4 NO 1015,8 8
16.10.2018 00:00:00 13,5 11,5 5 3 7 4 ONO 1015,6 9
15.10.2018 23:00:00 13,9 11,8 8 4 - - O 1015,3 9
15.10.2018 22:00:00 13,8 12,0 9 5 11 6 O 1014,7 10
15.10.2018 21:00:00 14,9 12,7 5 3 7 4 O 1014,4 10
15.10.2018 20:00:00 16,3 13,2 5 3 - - NO 1014,2 10
15.10.2018 19:00:00 17,4 13,9 8 4 14 8 N 1013,7 10
15.10.2018 18:00:00 18,2 14,0 11 6 18 10 N 1013,2 10
15.10.2018 17:00:00 18,2 14,3 15 8 - - NW 1012,6 10
15.10.2018 16:00:00 21,7 13,1 16 9 32 18 ZW 1011,9 10
15.10.2018 15:00:00 22,0 12,9 22 12 36 19 ZZW 1011,7 10
15.10.2018 14:00:00 21,9 13,0 26 14 - - ZZW 1011,4 10
15.10.2018 13:00:00 20,2 13,5 18 10 40 21 ZZW 1011,3 10
15.10.2018 12:00:00 20,1 13,2 26 14 36 19 Z 1010,8 10
15.10.2018 11:00:00 18,2 12,0 18 10 - - Z 1010,3 10
15.10.2018 10:00:00 16,2 11,2 15 8 22 12 Z 1009,6 10
15.10.2018 09:00:00 14,8 10,4 15 8 22 12 Z 1008,8 10
15.10.2018 08:00:00 13,7 10,1 9 5 - - ZZO 1008,2 10
15.10.2018 07:00:00 13,9 10,0 13 7 18 10 ZZO 1007,9 10
15.10.2018 06:00:00 14,7 10,2 13 7 22 12 ZZO 1007,6 10
15.10.2018 05:00:00 14,2 10,2 11 6 - - ZO 1007,4 10
15.10.2018 04:00:00 13,3 9,9 9 5 14 8 ZZO 1007,6 10
15.10.2018 03:00:00 13,7 10,3 11 6 18 10 O 1007,5 10
15.10.2018 02:00:00 14,5 10,8 15 8 - - O 1007,4 10
15.10.2018 01:00:00 14,4 11,1 11 6 11 6 O 1007,2 10
15.10.2018 00:00:00 16,3 11,7 11 6 14 8 ONO 1007,4 10
14.10.2018 23:00:00 17,4 12,2 4 2 - - - 1007,5 10
14.10.2018 22:00:00 15,6 11,5 11 6 14 8 OZO 1007,0 30
14.10.2018 21:00:00 16,5 11,9 8 4 11 6 O 1006,9 10
14.10.2018 20:00:00 17,3 12,6 11 6 - - ZO 1006,6 30
14.10.2018 19:00:00 19,0 13,0 8 4 18 10 ZZO 1006,2 10
14.10.2018 18:00:00 21,9 13,3 13 7 36 19 ZZO 1006,0 10
14.10.2018 17:00:00 22,4 13,0 29 16 - - Z 1005,9 10
14.10.2018 16:00:00 22,5 13,0 26 14 36 19 Z 1005,7 10
14.10.2018 15:00:00 21,4 12,7 28 15 43 23 Z 1005,6 10
14.10.2018 14:00:00 21,5 12,6 28 15 - - Z 1005,7 10
14.10.2018 13:00:00 20,5 12,3 26 14 40 21 Z 1006,0 10
14.10.2018 12:00:00 19,4 12,3 29 16 40 21 Z 1006,4 10
14.10.2018 11:00:00 18,2 12,6 24 13 - - ZZO 1006,5 10
14.10.2018 10:00:00 16,3 11,8 21 11 29 16 ZZO 1006,5 10
14.10.2018 09:00:00 15,1 11,5 21 11 25 14 ZZO 1006,9 10
14.10.2018 08:00:00 15,6 11,9 18 10 - - ZZO 1006,9 10
14.10.2018 07:00:00 15,5 12,2 14 8 18 10 ZO 1007,4 25
14.10.2018 06:00:00 14,8 11,9 9 5 11 6 OZO 1008,3 10
14.10.2018 05:00:00 15,9 12,6 8 4 - - ZZO 1008,9 10
14.10.2018 04:00:00 16,0 12,8 8 4 22 12 ZO 1009,3 10
14.10.2018 03:00:00 17,2 13,4 15 8 25 14 ZZO 1009,5 10
14.10.2018 02:00:00 17,3 13,6 15 8 - - ZZO 1010,1 10
14.10.2018 01:00:00 17,6 13,9 11 6 18 10 ZZO 1010,8 10
14.10.2018 00:00:00 18,5 14,1 13 7 25 14 ZZO 1011,5 10
13.10.2018 23:00:00 18,6 14,4 15 8 - - ZZO 1011,7 10
13.10.2018 22:00:00 19,1 14,7 15 8 29 16 ZZO 1011,9 10
13.10.2018 21:00:00 20,0 15,1 22 12 32 18 ZZO 1011,8 10
13.10.2018 20:00:00 20,4 15,6 22 12 - - ZZO 1012,1 10
13.10.2018 19:00:00 21,3 16,1 22 12 36 19 ZZO 1012,2 10
13.10.2018 18:00:00 22,3 16,4 18 10 36 19 ZZO 1012,5 10
13.10.2018 17:00:00 23,3 16,3 29 16 - - Z 1013,1 10
13.10.2018 16:00:00 24,4 16,4 29 16 43 23 Z 1013,6 10
13.10.2018 15:00:00 24,2 16,4 29 16 43 23 Z 1014,1 10
13.10.2018 14:00:00 23,9 16,6 29 16 - - Z 1015,1 10
13.10.2018 13:00:00 22,7 16,2 26 14 40 21 ZZO 1015,6 10
13.10.2018 12:00:00 21,3 15,6 29 16 40 21 Z 1016,2 22
13.10.2018 11:00:00 19,4 14,5 22 12 - - ZZO 1016,3 10
13.10.2018 10:00:00 18,2 13,7 18 10 29 16 Z 1016,5 10
13.10.2018 09:00:00 16,3 13,2 18 10 25 14 ZZO 1016,5 10
13.10.2018 08:00:00 16,4 13,4 15 8 - - Z 1016,7 10
13.10.2018 07:00:00 17,1 13,6 13 7 32 18 ZZW 1016,8 10
13.10.2018 06:00:00 17,3 13,7 22 12 29 16 Z 1016,7 10
13.10.2018 05:00:00 17,2 13,7 18 10 - - Z 1017,0 10
13.10.2018 04:00:00 17,8 14,0 16 9 22 12 Z 1017,4 10
13.10.2018 03:00:00 18,8 14,1 18 10 26 14 Z 1017,5 10
13.10.2018 02:00:00 18,8 14,3 18 10 - - Z 1017,3 10
13.10.2018 01:00:00 19,4 14,5 24 13 32 18 Z 1017,3 10
13.10.2018 00:00:00 19,1 14,9 21 11 32 18 Z 1017,5 10
12.10.2018 23:00:00 19,6 15,2 24 13 - - Z 1017,6 10
12.10.2018 22:00:00 19,6 15,2 22 12 32 18 Z 1017,6 10
12.10.2018 21:00:00 19,9 15,4 24 13 40 21 Z 1016,9 10
12.10.2018 20:00:00 19,4 15,4 24 13 - - ZZO 1016,5 10
12.10.2018 19:00:00 20,1 15,6 22 12 40 21 Z 1016,5 10
12.10.2018 18:00:00 20,8 15,6 29 16 43 23 Z 1016,3 10
12.10.2018 17:00:00 20,8 15,9 29 16 - - Z 1016,5 10
12.10.2018 16:00:00 20,5 13,2 28 15 47 25 Z 1016,4 10
12.10.2018 15:00:00 21,0 12,2 24 13 40 21 Z 1016,1 10
12.10.2018 14:00:00 20,3 12,3 28 15 - - Z 1016,8 10
12.10.2018 13:00:00 19,1 12,6 29 16 47 25 Z 1016,6 10
12.10.2018 12:00:00 17,5 12,5 28 15 43 23 Z 1016,4 10
12.10.2018 11:00:00 15,5 11,5 24 13 - - Z 1016,3 10
12.10.2018 10:00:00 14,1 10,9 21 11 32 18 Z 1015,9 10
12.10.2018 09:00:00 12,8 10,4 18 10 25 14 ZZO 1015,5 10
12.10.2018 08:00:00 12,1 9,9 16 9 - - Z 1014,9 10
12.10.2018 07:00:00 12,1 10,0 15 8 22 12 Z 1014,7 10
12.10.2018 06:00:00 12,3 10,1 15 8 22 12 Z 1013,8 10
12.10.2018 05:00:00 12,4 10,0 13 7 - - Z 1013,3 10
12.10.2018 04:00:00 13,4 10,9 13 7 22 12 Z 1013,1 10
12.10.2018 03:00:00 14,4 11,9 15 8 22 12 Z 1012,9 10
12.10.2018 02:00:00 15,6 12,9 16 9 - - Z 1012,3 10
12.10.2018 01:00:00 16,4 13,7 18 10 36 19 ZZW 1010,7 10
12.10.2018 00:00:00 18,1 14,1 21 11 40 21 Z 1010,0 10
11.10.2018 23:00:00 18,9 14,1 29 16 - - ZZO 1009,2 15
11.10.2018 22:00:00 19,2 14,2 21 11 32 18 ZZO 1008,8 10
11.10.2018 21:00:00 19,0 14,1 16 9 25 14 ZO 1008,9 10
11.10.2018 20:00:00 19,3 14,4 15 8 - - ZO 1009,1 10
11.10.2018 19:00:00 19,7 14,4 13 7 25 14 ZO 1009,0 10
11.10.2018 18:00:00 20,7 14,6 18 10 36 19 ZZO 1008,5 10
11.10.2018 17:00:00 22,2 14,2 26 14 - - Z 1008,5 10
11.10.2018 16:00:00 22,2 14,4 29 16 47 25 ZZO 1008,3 10
11.10.2018 15:00:00 21,8 14,8 29 16 40 21 Z 1008,2 10
11.10.2018 14:00:00 21,4 15,1 28 15 - - ZZO 1008,3 10
11.10.2018 13:00:00 19,8 14,2 24 13 40 21 Z 1008,7 10
11.10.2018 12:00:00 18,7 14,1 26 14 36 19 Z 1009,1 10
11.10.2018 11:00:00 17,7 14,0 26 14 - - Z 1009,5 10
11.10.2018 10:00:00 16,3 13,5 26 14 36 19 ZZO 1009,3 10
11.10.2018 09:00:00 15,2 12,9 24 13 36 19 ZZO 1009,0 10
11.10.2018 08:00:00 15,0 13,1 28 15 - - Z 1008,5 9
11.10.2018 07:00:00 15,9 11,7 16 9 36 19 ZO 1007,9 10
11.10.2018 06:00:00 17,2 12,1 26 14 36 19 Z 1008,4 10

tt = temperatuur
td = dauwpunt
ff = windsnelheid
fx = windstoten
dd = windrichting
ppp = luchtdruk
vv = zicht

Weerstations in de omgeving